Weather History for Idaho Falls, ID

Change the Weather History Date:

Sunday, March 10, 2013

  Actual Average Record
Temperature  
Mean Temperature 33 °F 34 °F  
Max Temperature 44 °F 44 °F 65 °F (1972)
Min Temperature 21 °F 24 °F 4 °F (1969)
Degree Days  
Heating Degree Days 32 31  
Month to date heating degree days 343 332  
Since 1 July heating degree days 5906 6134  
Cooling Degree Days 0 0  
Month to date cooling degree days 0 0  
Year to date cooling degree days 0 0  
Moisture  
Dew Point 24 °F    
Average Humidity 63    
Maximum Humidity 81    
Minimum Humidity 44    
Precipitation  
Precipitation 0.00 in 0.03 in 0.20 in (2014)
Month to date precipitation 0.12 0.28  
Year to date precipitation 0.52 1.63  
Sea Level Pressure  
Sea Level Pressure 30.34 in    
Wind  
Wind Speed 9 mph (SSW)    
Max Wind Speed 20 mph    
Max Gust Speed 23 mph    
Visibility 10 miles    
Events      
T = Trace of Precipitation, MM = Missing Value Source: NWS Daily Summary

Daily Weather History Graph

Daily Weather History Graph

Search for Another Location

Airport:

Trip Planner

Search our weather history database for the weather conditions in past years. The results will help you decide how hot, cold, wet, or windy it might be!

Date:

Astronomy

Mar. 10, 2013 Rise Set
Actual Time 7:48 AM MDT 7:28 PM MDT
Civil Twilight 7:20 AM MDT 7:57 PM MDT
Nautical Twilight 6:47 AM MDT 8:30 PM MDT
Astronomical Twilight 6:13 AM MDT 9:04 PM MDT
Moon 6:51 AM MDT (3/10) 6:40 PM MDT (3/10)
Length of Visible Light 12h 37m
Length of Day
11h 40m
Waning Crescent, 1% of the Moon is Illuminated
Mar 10
Waning Crescent
Mar 11
New
Mar 19
First Quarter
Mar 27
Full
Apr 2
Last Quarter

Hourly Weather History & Observations

Time (MDT) Temp. Windchill Dew Point Humidity Pressure Visibility Wind Dir Wind Speed Gust Speed Precip Events Conditions
12:53 AM 28.9 °F 23.9 °F 21.9 °F 75% 30.33 in 10.0 mi SE 4.6 mph - N/A   Clear
1:53 AM 27.0 °F 23.0 °F 21.0 °F 78% 30.35 in 10.0 mi SSE 3.5 mph - N/A   Clear
3:53 AM 26.1 °F 17.6 °F 21.0 °F 81% 30.37 in 10.0 mi SW 8.1 mph - N/A   Clear
4:53 AM 26.1 °F 21.9 °F 19.9 °F 78% 30.37 in 10.0 mi SSW 3.5 mph - N/A   Clear
6:53 AM 23.0 °F 18.4 °F 18.0 °F 81% 30.40 in 10.0 mi SW 3.5 mph - N/A   Clear
7:53 AM 25.0 °F 19.3 °F 19.9 °F 81% 30.42 in 10.0 mi SSW 4.6 mph - N/A   Clear
8:53 AM 28.0 °F 22.8 °F 21.9 °F 78% 30.41 in 10.0 mi SSW 4.6 mph - N/A   Clear
9:53 AM 32.0 °F 22.5 °F 24.1 °F 73% 30.42 in 10.0 mi SSW 12.7 mph - N/A   Clear
10:53 AM 33.1 °F 23.9 °F 26.1 °F 75% 30.43 in 10.0 mi SW 12.7 mph - N/A   Clear
11:53 AM 35.1 °F 26.9 °F 26.1 °F 70% 30.43 in 10.0 mi SW 11.5 mph - N/A   Clear
12:53 PM 37.0 °F 28.9 °F 25.0 °F 62% 30.41 in 10.0 mi SW 12.7 mph - N/A   Clear
1:53 PM 39.0 °F 31.4 °F 25.0 °F 57% 30.38 in 10.0 mi SSW 12.7 mph - N/A   Clear
2:53 PM 39.9 °F 33.4 °F 26.1 °F 58% 30.34 in 10.0 mi SW 10.4 mph - N/A   Clear
3:53 PM 39.9 °F 32.9 °F 27.0 °F 60% 30.34 in 10.0 mi SW 11.5 mph - N/A   Clear
4:53 PM 42.1 °F 36.6 °F 27.0 °F 55% 30.33 in 10.0 mi SW 9.2 mph - N/A   Clear
5:53 PM 43.0 °F 37.7 °F 26.1 °F 51% 30.30 in 10.0 mi SSW 9.2 mph - N/A   Clear
6:53 PM 42.1 °F 36.6 °F 27.0 °F 55% 30.29 in 10.0 mi SSW 9.2 mph - N/A   Overcast
7:53 PM 37.9 °F 33.5 °F 28.9 °F 70% 30.30 in 10.0 mi SSW 5.8 mph - N/A   Scattered Clouds
8:53 PM 39.0 °F 33.4 °F 28.0 °F 65% 30.29 in 10.0 mi SSW 8.1 mph - N/A   Mostly Cloudy
9:53 PM 39.0 °F 32.8 °F 27.0 °F 62% 30.27 in 10.0 mi SSW 9.2 mph - N/A   Mostly Cloudy
10:53 PM 39.9 °F 32.9 °F 24.1 °F 53% 30.24 in 10.0 mi South 11.5 mph - N/A   Scattered Clouds
11:53 PM 39.0 °F 31.0 °F 19.9 °F 46% 30.23 in 10.0 mi SSW 13.8 mph - N/A   Overcast
12:53 AM 37.0 °F 28.1 °F 21.9 °F 54% 30.20 in 10.0 mi SW 15.0 mph - N/A   Partly Cloudy